Location: Gad�tanya
(48.0500°N, 20.8500°E)
Time: 11:56:57
(UTC+00:00)

Cosmos 389 Rocket - Pass Details

Date: 05 July 2020
Orbit: 442 x 477 km, 81.1° (Epoch: 14 August)

Event Time Altitude Azimuth Distance (km) Brightness Sun altitude
Rises 23:30:14 0° 353° (N) 2,505 7.5 -18.4°
Reaches altitude 10° 23:32:24 10° 359° (N) 1,618 6.4 -18.4°
Maximum altitude 23:35:50 48° 75° (ENE) 605 3.2 -18.2°
Enters shadow 23:37:06 31° 130° (SE) 817 3.4 -18.2°
